Location: Alando
(42.3054°N, 9.2895°E)
Time: 21:14:10
(UTC+00:00)

Nadezhda 1 Rocket - Pass Details

Date: 09 April 2020
Orbit: 941 x 1006 km, 83.0° (Epoch: 05 June)

Event Time Altitude Azimuth Distance (km) Brightness Sun altitude
Rises 19:15:03 0° 191° (SSW) 3,719 6.9 -14.3°
Reaches altitude 10° 19:17:35 10° 194° (SSW) 2,771 6.3 -14.7°
Maximum altitude 19:23:57 73° 279° (W) 1,045 4.3 -15.8°
Drops below altitude 10° 19:30:19 10° 4° (N) 2,763 6.7 -16.8°
Sets 19:32:51 0° 6° (N) 3,707 7.3 -17.2°
